Location: Bonnesvalyn
(49.1218°N, 3.3177°E)
Time: 10:04:30
(UTC+00:00)

BREEZE-M DEB (TANK) - Pass Details

Date: 09 February 2023
Orbit: 761 x 22168 km, 51.4° (Epoch: 23 March)

Event Time Altitude Azimuth Distance (km) Brightness Sun altitude
Rises 20:15:16 0° 237° (WSW) 10,634 9.3 -32.7°
Reaches altitude 10° 20:25:15 10° 237° (WSW) 7,036 8.3 -34.3°
Enters shadow 20:38:45 63° 212° (SSW) 1,587 4.4 -36.3°
